Previsão horária em Abdulnasyrovo

Hoje, 11 Abril, Domingo

Tempo Temperatura Precipitação Vento Pressão Humidade
00:00 -2°C° 0 mm 2 m/s 738 mmHg 97%
01:00 -3°C° 0 mm 2 m/s 738 mmHg 97%
02:00 -3°C° 0 mm 2 m/s 739 mmHg 98%
03:00 -3°C° 0 mm 2 m/s 739 mmHg 98%
04:00 -2°C° 0 mm 2 m/s 739 mmHg 98%
05:00 -2°C° 0 mm 2 m/s 739 mmHg 99%
06:00 +1°C° 0 mm 1 m/s 739 mmHg 99%
07:00 +1°C° 0 mm 1 m/s 739 mmHg 99%
08:00 +2°C° 0 mm 1 m/s 739 mmHg 99%
09:00 +1°C° 0 mm 2 m/s 739 mmHg 99%
10:00 +2°C° 0 mm 2 m/s 739 mmHg 99%
11:00 +3°C° 0 mm 2 m/s 739 mmHg 99%
12:00 +3°C° 0 mm 2 m/s 739 mmHg 99%
13:00 +3°C° 0 mm 2 m/s 739 mmHg 98%
14:00 +4°C° 0 mm 2 m/s 739 mmHg 97%
15:00 +4°C° 0 mm 2 m/s 739 mmHg 95%
16:00 +5°C° 0 mm 2 m/s 739 mmHg 93%
17:00 +5°C° 0 mm 1 m/s 739 mmHg 94%
18:00 +4°C° 0 mm 1 m/s 739 mmHg 94%
19:00 +3°C° 0 mm 1 m/s 739 mmHg 94%
20:00 +3°C° 0 mm 1 m/s 739 mmHg 93%
21:00 +3°C° 0 mm 1 m/s 739 mmHg 92%
22:00 +2°C° 0 mm 1 m/s 739 mmHg 91%
23:00 +2°C° 0 mm 1 m/s 739 mmHg 88%

Amanhã, 12 Abril, Segunda-feira

Tempo Temperatura Precipitação Vento Pressão Humidade
00:00 +1°C° 0 mm 0 m/s 739 mmHg 86%
01:00 +1°C° 0 mm 0 m/s 739 mmHg 83%
02:00 +1°C° 0 mm 0 m/s 739 mmHg 79%
03:00 +1°C° 0 mm 0 m/s 739 mmHg 76%
04:00 +1°C° 0 mm 0 m/s 739 mmHg 72%
05:00 +2°C° 0 mm 0 m/s 739 mmHg 70%
06:00 +2°C° 0 mm 0 m/s 739 mmHg 67%
07:00 +3°C° 0 mm 0 m/s 739 mmHg 64%
08:00 +4°C° 0 mm 0 m/s 739 mmHg 60%
09:00 +6°C° 0 mm 0 m/s 739 mmHg 56%
10:00 +7°C° 0 mm 0 m/s 739 mmHg 52%
11:00 +8°C° 0 mm 0 m/s 739 mmHg 51%
12:00 +10°C° 0 mm 1 m/s 739 mmHg 50%
13:00 +11°C° 0 mm 1 m/s 739 mmHg 49%
14:00 +11°C° 0 mm 1 m/s 739 mmHg 51%
15:00 +12°C° 0 mm 1 m/s 739 mmHg 53%
16:00 +12°C° 0 mm 2 m/s 739 mmHg 55%
17:00 +9°C° 0 mm 2 m/s 739 mmHg 60%
18:00 +8°C° 0 mm 2 m/s 739 mmHg 64%
19:00 +6°C° 0 mm 2 m/s 739 mmHg 69%
20:00 +6°C° 0 mm 2 m/s 739 mmHg 70%
21:00 +5°C° 0 mm 2 m/s 739 mmHg 71%
22:00 +5°C° 0 mm 2 m/s 739 mmHg 72%
23:00 +4°C° 0 mm 2 m/s 739 mmHg 74%

Depois de amanhã, 13 Abril, Terça-feira

Tempo Temperatura Precipitação Vento Pressão Humidade
00:00 +4°C° 0 mm 2 m/s 739 mmHg 76%
01:00 +4°C° 0 mm 2 m/s 739 mmHg 78%
02:00 +3°C° 0 mm 2 m/s 739 mmHg 79%
03:00 +3°C° 0 mm 2 m/s 740 mmHg 80%
04:00 +2°C° 0 mm 3 m/s 740 mmHg 81%
05:00 +2°C° 0 mm 3 m/s 740 mmHg 82%
06:00 +2°C° 0 mm 3 m/s 740 mmHg 83%
07:00 +3°C° 0 mm 3 m/s 740 mmHg 84%
08:00 +4°C° 0 mm 3 m/s 740 mmHg 82%
09:00 +7°C° 0 mm 3 m/s 740 mmHg 79%
10:00 +8°C° 0 mm 4 m/s 741 mmHg 77%
11:00 +10°C° 0 mm 4 m/s 740 mmHg 76%
12:00 +11°C° 0 mm 4 m/s 740 mmHg 75%
13:00 +12°C° 0 mm 4 m/s 740 mmHg 73%
14:00 +11°C° 0 mm 4 m/s 740 mmHg 77%
15:00 +11°C° 0 mm 4 m/s 740 mmHg 81%
16:00 +10°C° 0 mm 4 m/s 740 mmHg 84%
17:00 +10°C° 0 mm 4 m/s 739 mmHg 86%
18:00 +8°C° 0 mm 4 m/s 739 mmHg 88%
19:00 +9°C° 0 mm 3 m/s 739 mmHg 89%
20:00 +9°C° 0 mm 3 m/s 739 mmHg 87%
21:00 +9°C° 0 mm 3 m/s 739 mmHg 85%
22:00 +9°C° 0 mm 3 m/s 739 mmHg 84%
23:00 +9°C° 0 mm 3 m/s 738 mmHg 85%

14 Abril, Quarta-feira

Tempo Temperatura Precipitação Vento Pressão Humidade
00:00 +8°C° 0 mm 2 m/s 738 mmHg 86%
01:00 +8°C° 0 mm 2 m/s 737 mmHg 87%
02:00 +7°C° 0 mm 2 m/s 737 mmHg 88%
03:00 +6°C° 0 mm 2 m/s 737 mmHg 89%
04:00 +6°C° 0 mm 2 m/s 737 mmHg 90%
05:00 +6°C° 0 mm 2 m/s 737 mmHg 90%
06:00 +6°C° 0 mm 2 m/s 737 mmHg 89%
07:00 +7°C° 0 mm 2 m/s 737 mmHg 88%
08:00 +8°C° 0 mm 2 m/s 737 mmHg 80%
09:00 +9°C° 0 mm 3 m/s 736 mmHg 72%
10:00 +11°C° 0 mm 4 m/s 736 mmHg 65%
11:00 +12°C° 0 mm 4 m/s 736 mmHg 60%
12:00 +13°C° 0 mm 4 m/s 735 mmHg 55%
13:00 +14°C° 0 mm 4 m/s 735 mmHg 49%
14:00 +14°C° 0 mm 4 m/s 734 mmHg 47%
15:00 +14°C° 0 mm 4 m/s 734 mmHg 45%
16:00 +15°C° 0 mm 4 m/s 733 mmHg 43%
17:00 +13°C° 0 mm 3 m/s 733 mmHg 48%
18:00 +12°C° 0 mm 3 m/s 733 mmHg 54%
19:00 +12°C° 0 mm 2 m/s 732 mmHg 59%
20:00 +10°C° 0 mm 2 m/s 732 mmHg 62%
21:00 +9°C° 0 mm 2 m/s 732 mmHg 64%
22:00 +8°C° 0 mm 2 m/s 732 mmHg 66%
23:00 +8°C° 0 mm 2 m/s 732 mmHg 68%

15 Abril, Quinta-feira

Tempo Temperatura Precipitação Vento Pressão Humidade
00:00 +8°C° 0 mm 1 m/s 731 mmHg 69%
01:00 +8°C° 0 mm 1 m/s 731 mmHg 70%
02:00 +7°C° 0 mm 1 m/s 731 mmHg 71%
03:00 +6°C° 0 mm 2 m/s 731 mmHg 72%
04:00 +5°C° 0 mm 2 m/s 730 mmHg 72%
05:00 +6°C° 0 mm 2 m/s 730 mmHg 72%
06:00 +6°C° 0 mm 2 m/s 730 mmHg 71%
07:00 +8°C° 0 mm 1 m/s 730 mmHg 70%
08:00 +8°C° 0 mm 2 m/s 730 mmHg 63%
09:00 +10°C° 0 mm 2 m/s 730 mmHg 56%
10:00 +12°C° 0 mm 2 m/s 730 mmHg 49%
11:00 +14°C° 0 mm 2 m/s 729 mmHg 46%
12:00 +15°C° 0 mm 2 m/s 729 mmHg 42%
13:00 +16°C° 0 mm 2 m/s 729 mmHg 38%
14:00 +16°C° 0 mm 2 m/s 728 mmHg 37%
15:00 +16°C° 0 mm 2 m/s 728 mmHg 35%
16:00 +17°C° 0 mm 2 m/s 728 mmHg 34%
17:00 +16°C° 0 mm 1 m/s 727 mmHg 39%
18:00 +14°C° 0 mm 1 m/s 727 mmHg 44%
19:00 +13°C° 0 mm 1 m/s 726 mmHg 48%
20:00 +12°C° 0 mm 1 m/s 726 mmHg 51%
21:00 +12°C° 0 mm 1 m/s 726 mmHg 53%
22:00 +10°C° 0 mm 0 m/s 726 mmHg 56%
23:00 +9°C° 0 mm 0 m/s 725 mmHg 58%

16 Abril, Sexta-feira

Tempo Temperatura Precipitação Vento Pressão Humidade
00:00 +9°C° 0 mm 0 m/s 725 mmHg 59%
01:00 +8°C° 0 mm 0 m/s 725 mmHg 61%
02:00 +8°C° 0 mm 0 m/s 724 mmHg 62%
03:00 +7°C° 0 mm 0 m/s 724 mmHg 63%
04:00 +7°C° 0 mm 0 m/s 724 mmHg 64%
05:00 +7°C° 0 mm 0 m/s 723 mmHg 64%
06:00 +8°C° 0 mm 0 m/s 723 mmHg 63%
07:00 +9°C° 0 mm 1 m/s 723 mmHg 63%
08:00 +11°C° 0 mm 1 m/s 723 mmHg 57%
09:00 +12°C° 0 mm 2 m/s 722 mmHg 51%
10:00 +14°C° 0 mm 2 m/s 722 mmHg 45%
11:00 +15°C° 0 mm 2 m/s 722 mmHg 41%
12:00 +16°C° 0 mm 3 m/s 721 mmHg 36%
13:00 +18°C° 0 mm 3 m/s 721 mmHg 32%
14:00 +18°C° 0 mm 4 m/s 721 mmHg 33%
15:00 +17°C° 0 mm 5 m/s 720 mmHg 33%
16:00 +17°C° 0 mm 5 m/s 720 mmHg 33%
17:00 +17°C° 0 mm 4 m/s 719 mmHg 40%
18:00 +14°C° 0 mm 4 m/s 719 mmHg 46%
19:00 +13°C° 0 mm 3 m/s 719 mmHg 53%
20:00 +12°C° 0 mm 3 m/s 719 mmHg 57%
21:00 +11°C° 0 mm 3 m/s 718 mmHg 61%
22:00 +10°C° 0 mm 4 m/s 718 mmHg 64%
23:00 +10°C° 0 mm 3 m/s 718 mmHg 69%
Mostrar mais